LiveATC.Net - Listen to live air traffic control over the Internet!


ICAO: SAEZ  IATA: EZE   Airport: Ministro Pistarini International Airport
City: Buenos Aires
Country: Argentina   Continent: South America
SAEZ METAR Weather: SAEZ 302000Z 03007KT 010V080 9000 FEW019 15/11 Q1013
SAEZ Flight Activity (FlightAware)
SAEZ Del/Gnd/Twr/App/Radar/Misc
Feed Status: UP   Listeners: 2
Listen right in your browser - requires Flash (in browser, requires Flash)
Click here to listen with your own player (launches your MP3 player)
SAEZ Del/Gnd/Twr/App/Radar/Misc Audio Archives
FacilityFrequency
MiscN/A


NOTICE

Unauthorized use prohibited. See LiveATC.net Terms of Service


Find LiveATC Audio Streams


Airport/ARTCC Code

Frequency
(e.g., 124.400, 128.75)
Site-wide search

Browse LiveATC Feeds
LiveATC Coverage Map
Top 50 LiveATC Feeds
Bad Weather Areas

LiveATC FAQ
Offer a LiveATC Feed
Contact LiveATC.net
Press Inquiries

LiveATC on iPhone
LiveATC on Android

Windows Phone
Windows 8/10

LiveATC Mobile
(Mobile browser)

ATC Audio Archives
Interesting Recordings

LiveATC Forums


Home Page
About LiveATC.net
Make a Donation
LiveATC Store

Terms of Use
Privacy Policy

Canadian Air Freqs

AIRMETs/SIGMETs

FAA Airport Status
Nat'l Airspace Status
Arrival Demand Charts


Server Software By:
Icecast.org
Liquidsoap